| time (UTC) | temp F | wind direction | speed MPH | gust MPH | rain 1hr in | rain 24hr in | rain mn in | humidity % | barometer mb |
| 20260503013033 | 48 | 321 | 0.0 | 3.0 | 0.00 | 0.13 | 0.00 | 90 | 1011.2 |
| 20260503011534 | 47 | 321 | 0.0 | 0.0 | 0.00 | 0.13 | 0.00 | 89 | 1010.9 |
| 20260503010034 | 48 | 321 | 0.0 | 0.0 | 0.00 | 0.13 | 0.00 | 89 | 1010.8 |
| 20260503004525 | 48 | 321 | 0.0 | 0.0 | 0.00 | 0.13 | 0.00 | 88 | 1010.7 |
| 20260503003026 | 49 | 321 | 0.0 | 0.0 | 0.00 | 0.13 | 0.00 | 88 | 1010.6 |
| 20260503001522 | 49 | 321 | 0.0 | 0.0 | 0.00 | 0.13 | 0.00 | 88 | 1010.5 |
| 20260503000019 | 49 | 321 | 0.0 | 0.0 | 0.00 | 0.13 | 0.00 | 87 | 1010.5 |
| 20260502234555 | 50 | 321 | 0.0 | 0.0 | 0.00 | 0.13 | 0.00 | 87 | 1010.5 |
| 20260502233045 | 51 | 321 | 0.0 | 0.0 | 0.00 | 0.13 | 0.00 | 87 | 1010.3 |
| 20260502231547 | 51 | 321 | 0.0 | 0.0 | 0.00 | 0.13 | 0.00 | 87 | 1010.3 |
| 20260502230042 | 51 | 314 | 0.0 | 0.0 | 0.00 | 0.13 | 0.00 | 87 | 1010.3 |
| 20260502224541 | 51 | 314 | 0.0 | 0.0 | 0.00 | 0.13 | 0.00 | 87 | 1010.2 |
| 20260502223041 | 51 | 314 | 0.0 | 0.0 | 0.00 | 0.13 | 0.00 | 86 | 1010.1 |
| 20260502221509 | 52 | 314 | 0.0 | 0.0 | 0.00 | 0.13 | 0.00 | 87 | 1010.0 |
| 20260502220106 | 51 | 314 | 0.0 | 0.0 | 0.00 | 0.13 | 0.00 | 86 | 1010.1 |
| 20260502214502 | 50 | 316 | 0.0 | 0.0 | 0.00 | 0.13 | 0.00 | 86 | 1010.3 |
| 20260502213109 | 50 | 315 | 0.0 | 0.0 | 0.01 | 0.13 | 0.13 | 88 | 1010.2 |
| 20260502211559 | 50 | 316 | 0.0 | 1.0 | 0.01 | 0.13 | 0.13 | 88 | 1010.1 |
| 20260502210058 | 49 | 316 | 0.0 | 0.0 | 0.05 | 0.13 | 0.13 | 88 | 1010.2 |
| 20260502204617 | 49 | 316 | 0.0 | 0.0 | 0.06 | 0.13 | 0.13 | 88 | 1010.4 |
| 20260502203058 | 49 | 316 | 0.0 | 2.0 | 0.05 | 0.12 | 0.12 | 87 | 1010.4 |
| 20260502201553 | 49 | 329 | 3.0 | 6.0 | 0.05 | 0.12 | 0.12 | 87 | 1010.5 |
| 20260502200053 | 49 | 309 | 6.0 | 13.0 | 0.01 | 0.08 | 0.08 | 84 | 1010.7 |
| 20260502194551 | 53 | 260 | 11.0 | 16.0 | 0.00 | 0.07 | 0.07 | 72 | 1010.3 |
| 20260502193053 | 54 | 196 | 2.0 | 10.0 | 0.00 | 0.07 | 0.07 | 72 | 1010.1 |
| 20260502191551 | 53 | 193 | 1.0 | 7.0 | 0.00 | 0.07 | 0.07 | 75 | 1010.5 |
| 20260502190049 | 52 | 193 | 0.0 | 6.0 | 0.00 | 0.07 | 0.07 | 77 | 1010.7 |
| 20260502184555 | 52 | 194 | 2.0 | 7.0 | 0.00 | 0.07 | 0.07 | 75 | 1010.8 |
| 20260502183047 | 52 | 167 | 1.0 | 6.0 | 0.00 | 0.07 | 0.07 | 74 | 1010.7 |
| 20260502181546 | 53 | 172 | 2.0 | 8.0 | 0.00 | 0.07 | 0.07 | 73 | 1010.8 |
| 20260502163038 | 51 | 314 | 0.0 | 1.0 | 0.00 | 0.07 | 0.07 | 82 | 1011.4 |
| 20260502161537 | 51 | 303 | 0.0 | 0.0 | 0.00 | 0.07 | 0.07 | 82 | 1011.7 |
| 20260502151530 | 50 | 216 | 0.0 | 2.0 | 0.00 | 0.07 | 0.07 | 86 | 1012.1 |
| 20260502123050 | 47 | 196 | 0.0 | 0.0 | 0.01 | 0.01 | 0.01 | 85 | 1013.0 |
| 20260502121533 | 47 | 196 | 2.0 | 6.0 | 0.00 | 0.00 | 0.00 | 84 | 1013.0 |
| 20260502114545 | 47 | 180 | 0.0 | 3.0 | 0.00 | 0.00 | 0.00 | 84 | 1012.7 |
| 20260502113039 | 47 | 128 | 0.0 | 2.0 | 0.00 | 0.00 | 0.00 | 84 | 1012.3 |
| 20260502111540 | 47 | 106 | 0.0 | 0.0 | 0.00 | 0.00 | 0.00 | 84 | 1011.8 |
| 20260502110036 | 46 | 106 | 0.0 | 1.0 | 0.00 | 0.00 | 0.00 | 84 | 1012.1 |
| 20260502104535 | 46 | 105 | 0.0 | 0.0 | 0.00 | 0.00 | 0.00 | 84 | 1012.2 |
| 20260502103038 | 46 | 105 | 0.0 | 0.0 | 0.00 | 0.00 | 0.00 | 83 | 1011.9 |
| 20260502101531 | 46 | 105 | 0.0 | 0.0 | 0.00 | 0.00 | 0.00 | 83 | 1011.9 |
| 20260502091526 | 46 | 105 | 0.0 | 0.0 | 0.00 | 0.00 | 0.00 | 82 | 1011.5 |
| 20260502071515 | 47 | 105 | 0.0 | 0.0 | 0.00 | 0.00 | 0.00 | 77 | 1011.3 |
| 20260502070019 | 47 | 105 | 0.0 | 0.0 | 0.00 | 0.00 | 0.00 | 77 | 1011.6 |
| 20260502064508 | 47 | 105 | 0.0 | 0.0 | 0.00 | 0.00 | 0.00 | 77 | 1011.6 |
| 20260502063012 | 47 | 105 | 0.0 | 0.0 | 0.00 | 0.00 | 0.00 | 78 | 1011.8 |
| 20260502061506 | 47 | 105 | 0.0 | 1.0 | 0.00 | 0.00 | 0.00 | 77 | 1012.1 |
| 20260502060002 | 47 | 105 | 0.0 | 0.0 | 0.00 | 0.00 | 0.00 | 75 | 1011.8 |
| 20260502054501 | 47 | 105 | 0.0 | 0.0 | 0.00 | 0.00 | 0.00 | 73 | 1011.9 |
| 20260502053001 | 48 | 105 | 0.0 | 0.0 | 0.00 | 0.00 | 0.00 | 73 | 1011.9 |
| 20260502051559 | 48 | 105 | 0.0 | 0.0 | 0.00 | 0.00 | 0.00 | 72 | 1012.0 |
| 20260502050031 | 48 | 105 | 0.0 | 0.0 | 0.00 | 0.00 | 0.00 | 71 | 1012.0 |
| 20260502044529 | 48 | 105 | 0.0 | 0.0 | 0.00 | 0.00 | 0.00 | 70 | 1012.0 |
| 20260502043025 | 48 | 105 | 0.0 | 0.0 | 0.00 | 0.00 | 0.00 | 69 | 1012.0 |
| 20260502041525 | 48 | 105 | 0.0 | 0.0 | 0.00 | 0.00 | 0.00 | 67 | 1012.0 |
| 20260502040023 | 49 | 105 | 0.0 | 0.0 | 0.00 | 0.00 | 0.00 | 65 | 1012.1 |
| 20260502034524 | 49 | 105 | 0.0 | 0.0 | 0.00 | 0.00 | 0.00 | 64 | 1012.1 |
| 20260502033020 | 50 | 105 | 0.0 | 0.0 | 0.00 | 0.00 | 0.00 | 63 | 1012.1 |
| 20260502031522 | 50 | 105 | 0.0 | 0.0 | 0.00 | 0.00 | 0.00 | 63 | 1012.1 |
| 20260502030019 | 50 | 105 | 0.0 | 0.0 | 0.00 | 0.00 | 0.00 | 61 | 1012.1 |
| 20260502024518 | 50 | 105 | 0.0 | 0.0 | 0.00 | 0.00 | 0.00 | 60 | 1012.0 |
| 20260502023014 | 50 | 105 | 0.0 | 0.0 | 0.00 | 0.00 | 0.00 | 61 | 1012.1 |
| 20260502021516 | 49 | 105 | 0.0 | 0.0 | 0.00 | 0.00 | 0.00 | 62 | 1012.0 |
| 20260502020012 | 49 | 105 | 0.0 | 0.0 | 0.00 | 0.00 | 0.00 | 61 | 1012.0 |
| 20260502014524 | 47 | 99 | 0.0 | 1.0 | 0.00 | 0.00 | 0.00 | 65 | 1011.9 |